![]() |
EMODnet Physics ERDDAP
Easier access to scientific data |
log in|
Brought to you by EMODnet Physics |
| Dataset Title: | NDBC - Collection of dew point temperature (DEWT) TimeSeries - IN SITU MultiPointTimeSeriesObservation
|
| Institution: | NDBC (Dataset ID: TS_DEWT_NDBC) |
| Information: | Summary
| License
| FGDC
| ISO 19115
| Metadata
| Background
| Subset
| Data Access Form
| Make a graph
|
| Name | Last modified | Size | Description | |
|---|---|---|---|---|
| Parent Directory | - | - | ||
| WDEL1_TS_DEWT_012009.nc | 29-Dec-2024 15:45 | 449906 | ||
| WDEL1_TS_DEWT_012010.nc | 29-Dec-2024 15:47 | 448803 | ||
| WDEL1_TS_DEWT_012014.nc | 29-Dec-2024 15:49 | 449061 | ||
| WDEL1_TS_DEWT_012015.nc | 29-Dec-2024 15:51 | 449237 | ||
| WDEL1_TS_DEWT_012016.nc | 29-Dec-2024 15:52 | 450300 | ||
| WDEL1_TS_DEWT_012017.nc | 29-Dec-2024 15:53 | 450586 | ||
| WDEL1_TS_DEWT_012018.nc | 29-Dec-2024 15:55 | 449655 | ||
| WDEL1_TS_DEWT_012021.nc | 20-Jan-2026 15:29 | 450827 | ||
| WDEL1_TS_DEWT_022009.nc | 29-Dec-2024 15:45 | 451156 | ||
| WDEL1_TS_DEWT_022010.nc | 29-Dec-2024 15:47 | 451246 | ||
| WDEL1_TS_DEWT_022014.nc | 29-Dec-2024 15:49 | 450552 | ||
| WDEL1_TS_DEWT_022015.nc | 29-Dec-2024 15:51 | 449664 | ||
| WDEL1_TS_DEWT_022016.nc | 29-Dec-2024 15:52 | 450466 | ||
| WDEL1_TS_DEWT_022017.nc | 29-Dec-2024 15:54 | 450789 | ||
| WDEL1_TS_DEWT_022018.nc | 29-Dec-2024 15:55 | 451094 | ||
| WDEL1_TS_DEWT_022021.nc | 20-Jan-2026 15:29 | 449742 | ||
| WDEL1_TS_DEWT_032010.nc | 29-Dec-2024 15:47 | 450332 | ||
| WDEL1_TS_DEWT_032012.nc | 29-Dec-2024 15:48 | 450657 | ||
| WDEL1_TS_DEWT_032014.nc | 29-Dec-2024 15:50 | 450419 | ||
| WDEL1_TS_DEWT_032015.nc | 29-Dec-2024 15:51 | 448310 | ||
| WDEL1_TS_DEWT_032016.nc | 29-Dec-2024 15:52 | 450383 | ||
| WDEL1_TS_DEWT_032017.nc | 29-Dec-2024 15:54 | 450271 | ||
| WDEL1_TS_DEWT_032018.nc | 29-Dec-2024 15:56 | 451224 | ||
| WDEL1_TS_DEWT_032021.nc | 20-Jan-2026 15:29 | 450863 | ||
| WDEL1_TS_DEWT_042010.nc | 29-Dec-2024 15:47 | 450275 | ||
| WDEL1_TS_DEWT_042012.nc | 29-Dec-2024 15:48 | 450155 | ||
| WDEL1_TS_DEWT_042014.nc | 29-Dec-2024 15:50 | 450380 | ||
| WDEL1_TS_DEWT_042015.nc | 29-Dec-2024 15:51 | 450618 | ||
| WDEL1_TS_DEWT_042016.nc | 29-Dec-2024 15:52 | 450104 | ||
| WDEL1_TS_DEWT_042017.nc | 29-Dec-2024 15:54 | 451301 | ||
| WDEL1_TS_DEWT_042021.nc | 20-Jan-2026 15:29 | 450459 | ||
| WDEL1_TS_DEWT_052010.nc | 29-Dec-2024 15:47 | 450307 | ||
| WDEL1_TS_DEWT_052012.nc | 29-Dec-2024 15:48 | 450708 | ||
| WDEL1_TS_DEWT_052014.nc | 29-Dec-2024 15:50 | 451534 | ||
| WDEL1_TS_DEWT_052015.nc | 29-Dec-2024 15:51 | 441998 | ||
| WDEL1_TS_DEWT_052016.nc | 29-Dec-2024 15:53 | 452907 | ||
| WDEL1_TS_DEWT_052017.nc | 29-Dec-2024 15:54 | 450389 | ||
| WDEL1_TS_DEWT_052018.nc | 29-Dec-2024 15:56 | 449456 | ||
| WDEL1_TS_DEWT_062010.nc | 29-Dec-2024 15:47 | 449162 | ||
| WDEL1_TS_DEWT_062012.nc | 29-Dec-2024 15:49 | 448162 | ||
| WDEL1_TS_DEWT_062014.nc | 29-Dec-2024 15:50 | 448658 | ||
| WDEL1_TS_DEWT_062015.nc | 29-Dec-2024 15:51 | 449792 | ||
| WDEL1_TS_DEWT_062016.nc | 29-Dec-2024 15:53 | 450162 | ||
| WDEL1_TS_DEWT_062017.nc | 29-Dec-2024 15:54 | 450093 | ||
| WDEL1_TS_DEWT_062018.nc | 29-Dec-2024 15:56 | 443717 | ||
| WDEL1_TS_DEWT_072010.nc | 29-Dec-2024 15:47 | 449263 | ||
| WDEL1_TS_DEWT_072012.nc | 29-Dec-2024 15:49 | 448815 | ||
| WDEL1_TS_DEWT_072014.nc | 29-Dec-2024 15:50 | 449255 | ||
| WDEL1_TS_DEWT_072015.nc | 29-Dec-2024 15:51 | 449178 | ||
| WDEL1_TS_DEWT_072016.nc | 29-Dec-2024 15:53 | 449481 | ||
| WDEL1_TS_DEWT_072017.nc | 29-Dec-2024 15:54 | 449100 | ||
| WDEL1_TS_DEWT_082009.nc | 29-Dec-2024 15:46 | 449745 | ||
| WDEL1_TS_DEWT_082010.nc | 29-Dec-2024 15:47 | 480567 | ||
| WDEL1_TS_DEWT_082012.nc | 29-Dec-2024 15:49 | 451396 | ||
| WDEL1_TS_DEWT_082014.nc | 29-Dec-2024 15:50 | 450751 | ||
| WDEL1_TS_DEWT_082015.nc | 29-Dec-2024 15:51 | 451499 | ||
| WDEL1_TS_DEWT_082016.nc | 29-Dec-2024 15:53 | 451042 | ||
| WDEL1_TS_DEWT_082017.nc | 29-Dec-2024 15:54 | 450777 | ||
| WDEL1_TS_DEWT_092009.nc | 29-Dec-2024 15:46 | 450618 | ||
| WDEL1_TS_DEWT_092010.nc | 29-Dec-2024 15:48 | 448889 | ||
| WDEL1_TS_DEWT_092014.nc | 29-Dec-2024 15:50 | 449837 | ||
| WDEL1_TS_DEWT_092015.nc | 29-Dec-2024 15:52 | 450579 | ||
| WDEL1_TS_DEWT_092016.nc | 29-Dec-2024 15:53 | 428631 | ||
| WDEL1_TS_DEWT_092017.nc | 29-Dec-2024 15:55 | 450617 | ||
| WDEL1_TS_DEWT_102009.nc | 29-Dec-2024 15:46 | 449889 | ||
| WDEL1_TS_DEWT_102010.nc | 29-Dec-2024 15:48 | 451777 | ||
| WDEL1_TS_DEWT_102013.nc | 29-Dec-2024 15:49 | 450609 | ||
| WDEL1_TS_DEWT_102014.nc | 29-Dec-2024 15:50 | 450194 | ||
| WDEL1_TS_DEWT_102015.nc | 29-Dec-2024 15:52 | 440762 | ||
| WDEL1_TS_DEWT_102017.nc | 29-Dec-2024 15:55 | 627249 | ||
| WDEL1_TS_DEWT_112009.nc | 29-Dec-2024 15:46 | 450913 | ||
| WDEL1_TS_DEWT_112010.nc | 29-Dec-2024 15:48 | 450290 | ||
| WDEL1_TS_DEWT_112013.nc | 29-Dec-2024 15:49 | 449264 | ||
| WDEL1_TS_DEWT_112014.nc | 29-Dec-2024 15:50 | 449315 | ||
| WDEL1_TS_DEWT_112015.nc | 29-Dec-2024 15:52 | 449494 | ||
| WDEL1_TS_DEWT_112017.nc | 29-Dec-2024 15:55 | 450154 | ||
| WDEL1_TS_DEWT_122008.nc | 29-Dec-2024 15:45 | 449152 | ||
| WDEL1_TS_DEWT_122009.nc | 29-Dec-2024 15:46 | 449714 | ||
| WDEL1_TS_DEWT_122010.nc | 29-Dec-2024 15:48 | 448842 | ||
| WDEL1_TS_DEWT_122013.nc | 29-Dec-2024 15:49 | 442467 | ||
| WDEL1_TS_DEWT_122014.nc | 29-Dec-2024 15:50 | 449815 | ||
| WDEL1_TS_DEWT_122015.nc | 29-Dec-2024 15:52 | 448716 | ||
| WDEL1_TS_DEWT_122017.nc | 29-Dec-2024 15:55 | 450587 | ||
| WDEL1_TS_DEWT_122020.nc | 20-Jan-2026 15:29 | 450724 | ||